Weather History for KFKN - May, 2013

Change the Weather History Date:

Monday, May 6, 2013

  Actual Average (KSFQ) Record (KSFQ)
Temperature  
Mean Temperature 66 °F -  
Max Temperature 75 °F 75 °F 94 °F (1950)
Min Temperature 57 °F 52 °F 40 °F (1954)
Cooling Degree Days 1    
Growing Degree Days 16 (Base 50)    
Moisture  
Dew Point 60 °F    
Average Humidity 88    
Maximum Humidity 100    
Minimum Humidity 50    
Precipitation  
Precipitation 0.00 in - - ()
Sea Level Pressure  
Sea Level Pressure 30.01 in    
Wind  
Wind Speed 10 mph (East)    
Max Wind Speed 16 mph    
Max Gust Speed 25 mph    
Visibility 6 miles    
Events      
Averages and records for this station are not official NWS values.
T = Trace of Precipitation, MM = Missing Value Source: NWS Daily Summary

Daily Weather History Graph

Daily Weather History Graph

Search for Another Location

Airport or City:

Trip Planner

Search our weather history database for the weather conditions in past years. The results will help you decide how hot, cold, wet, or windy it might be!

Date:

Astronomy

May. 06, 2013 Rise Set
Actual Time 6:08 AM EDT 8:00 PM EDT
Civil Twilight 5:40 AM EDT 8:28 PM EDT
Nautical Twilight 5:06 AM EDT 9:03 PM EDT
Astronomical Twilight 4:29 AM EDT 9:39 PM EDT
Moon 4:04 AM EDT (5/6) 5:02 PM EDT (5/6)
Length of Visible Light 14h 48m
Length of Day
13h 52m
Waning Crescent, 11% of the Moon is Illuminated
May 6
Waning Crescent
May 9
New
May 18
First Quarter
May 25
Full
May 31
Last Quarter

Hourly Weather History & Observations

Time (EDT) Temp. Dew Point Humidity Pressure Visibility Wind Dir Wind Speed Gust Speed Precip Events Conditions
12:15 AM 57.2 °F 55.4 °F 94% 30.10 in 7.0 mi ENE 9.2 mph 17.3 mph N/A   Overcast
12:35 AM 57.2 °F 55.4 °F 94% 30.09 in 7.0 mi ENE 10.4 mph 16.1 mph N/A   Overcast
12:55 AM 57.2 °F 55.4 °F 94% 30.08 in 7.0 mi ENE 10.4 mph 18.4 mph N/A   Overcast
1:15 AM 57.2 °F 55.4 °F 94% 30.07 in 7.0 mi ENE 11.5 mph 16.1 mph N/A   Overcast
1:35 AM 57.2 °F 55.4 °F 94% 30.08 in 7.0 mi ENE 10.4 mph - N/A   Overcast
1:55 AM 57.2 °F 57.2 °F 100% 30.07 in 7.0 mi ENE 10.4 mph - N/A   Overcast
2:35 AM 57.2 °F 57.2 °F 100% 30.06 in 7.0 mi ENE 9.2 mph - N/A   Overcast
2:55 AM 57.2 °F 57.2 °F 100% 30.05 in 7.0 mi ENE 10.4 mph - N/A   Overcast
3:15 AM 57.2 °F 57.2 °F 100% 30.05 in 5.0 mi ENE 9.2 mph - N/A   Overcast
3:35 AM 57.2 °F 57.2 °F 100% 30.05 in 7.0 mi ENE 11.5 mph 16.1 mph N/A   Overcast
3:55 AM 57.2 °F 57.2 °F 100% 30.04 in 5.0 mi ENE 10.4 mph 17.3 mph N/A   Overcast
4:15 AM 57.2 °F 57.2 °F 100% 30.04 in 5.0 mi ENE 9.2 mph - N/A   Overcast
4:35 AM 57.2 °F 57.2 °F 100% 30.04 in 5.0 mi ENE 10.4 mph - N/A   Overcast
4:55 AM 57.2 °F 57.2 °F 100% 30.04 in 4.0 mi ENE 8.1 mph - N/A   Overcast
5:15 AM 59.0 °F 59.0 °F 100% 30.04 in 3.0 mi ENE 5.8 mph - N/A   Overcast
5:35 AM 59.0 °F 59.0 °F 100% 30.04 in 2.0 mi ENE 9.2 mph - N/A   Overcast
5:55 AM 59.0 °F 59.0 °F 100% 30.04 in 2.0 mi ENE 9.2 mph - N/A   Overcast
6:15 AM 59.0 °F 59.0 °F 100% 30.04 in 2.0 mi ENE 9.2 mph - N/A   Overcast
6:35 AM 59.0 °F 59.0 °F 100% 30.04 in 1.8 mi ENE 10.4 mph - N/A   Overcast
6:55 AM 60.8 °F 60.8 °F 100% 30.04 in 2.0 mi ENE 9.2 mph - N/A   Overcast
7:15 AM 60.8 °F 60.8 °F 100% 30.04 in 1.5 mi East 10.4 mph - N/A   Overcast
7:35 AM 60.8 °F 60.8 °F 100% 30.05 in 2.0 mi East 9.2 mph - N/A   Overcast
7:55 AM 60.8 °F 60.8 °F 100% 30.04 in 2.0 mi East 9.2 mph - N/A   Overcast
8:15 AM 60.8 °F 60.8 °F 100% 30.05 in 2.5 mi East 9.2 mph - N/A   Overcast
8:35 AM 60.8 °F 60.8 °F 100% 30.05 in 4.0 mi East 8.1 mph - N/A   Overcast
8:55 AM 62.6 °F 62.6 °F 100% 30.05 in 5.0 mi East 11.5 mph - N/A   Overcast
9:15 AM 64.4 °F 62.6 °F 94% 30.05 in 7.0 mi ENE 9.2 mph - N/A   Overcast
9:35 AM 64.4 °F 62.6 °F 94% 30.05 in 10.0 mi ENE 11.5 mph - N/A   Overcast
9:55 AM 66.2 °F 62.6 °F 88% 30.04 in 10.0 mi East 11.5 mph - N/A   Overcast
10:15 AM 68.0 °F 62.6 °F 83% 30.04 in 10.0 mi ENE 10.4 mph - N/A   Mostly Cloudy
10:35 AM 69.8 °F 62.6 °F 78% 30.04 in 10.0 mi ENE 10.4 mph - N/A   Mostly Cloudy
10:55 AM 71.6 °F 62.6 °F 73% 30.04 in 10.0 mi East 6.9 mph - N/A   Overcast
11:15 AM 71.6 °F 62.6 °F 73% 30.04 in 10.0 mi East 8.1 mph - N/A   Overcast
11:35 AM 71.6 °F 62.6 °F 73% 30.03 in 10.0 mi East 9.2 mph - N/A   Scattered Clouds
11:55 AM 71.6 °F 60.8 °F 69% 30.02 in 10.0 mi ESE 6.9 mph - N/A   Scattered Clouds
12:15 PM 71.6 °F 62.6 °F 73% 30.01 in 10.0 mi East 10.4 mph - N/A   Scattered Clouds
12:35 PM 73.4 °F 60.8 °F 65% 30.00 in 10.0 mi East 8.1 mph - N/A   Scattered Clouds
12:55 PM 73.4 °F 59.0 °F 61% 29.99 in 10.0 mi East 10.4 mph 19.6 mph N/A   Scattered Clouds
1:15 PM 73.4 °F 57.2 °F 57% 29.98 in 10.0 mi East 11.5 mph 17.3 mph N/A   Scattered Clouds
1:35 PM 75.2 °F 55.4 °F 50% 29.98 in 10.0 mi East 12.7 mph 19.6 mph N/A   Scattered Clouds
1:55 PM 75.2 °F 55.4 °F 50% 29.98 in 10.0 mi SE 11.5 mph 21.9 mph N/A   Scattered Clouds
2:15 PM 75.2 °F 55.4 °F 50% 29.97 in 10.0 mi ESE 13.8 mph 19.6 mph N/A   Scattered Clouds
2:35 PM 75.2 °F 57.2 °F 53% 29.96 in 10.0 mi East 13.8 mph 25.3 mph N/A   Clear
2:55 PM 75.2 °F 57.2 °F 53% 29.96 in 10.0 mi East 11.5 mph 23.0 mph N/A   Scattered Clouds
3:15 PM 75.2 °F 57.2 °F 53% 29.96 in 10.0 mi ESE 13.8 mph 24.2 mph N/A   Mostly Cloudy
3:35 PM 73.4 °F 57.2 °F 57% 29.95 in 10.0 mi ESE 12.7 mph 21.9 mph N/A   Mostly Cloudy
3:55 PM 73.4 °F 59.0 °F 61% 29.95 in 10.0 mi ESE 16.1 mph 23.0 mph N/A   Overcast
4:15 PM 71.6 °F 60.8 °F 69% 29.95 in 10.0 mi ESE 15.0 mph 21.9 mph N/A   Overcast
4:35 PM 69.8 °F 60.8 °F 73% 29.96 in 10.0 mi SE 10.4 mph 24.2 mph N/A   Overcast
4:55 PM 68.0 °F 62.6 °F 83% 29.96 in 2.0 mi ESE 10.4 mph 17.3 mph N/A   Overcast
5:15 PM 66.2 °F 64.4 °F 94% 29.96 in 1.2 mi ESE 4.6 mph - N/A   Overcast
5:35 PM 66.2 °F 64.4 °F 94% 29.96 in 1.5 mi ESE 4.6 mph - N/A   Overcast
5:55 PM 66.2 °F 66.2 °F 100% 29.96 in 1.8 mi East 5.8 mph - N/A   Overcast
6:15 PM 66.2 °F 66.2 °F 100% 29.96 in 1.0 mi ESE 5.8 mph - N/A   Overcast
6:55 PM 64.4 °F 64.4 °F 100% 29.94 in 2.5 mi East 9.2 mph - N/A   Mostly Cloudy
7:15 PM 64.4 °F 64.4 °F 100% 29.94 in 2.5 mi East 6.9 mph - N/A   Scattered Clouds
7:35 PM 64.4 °F 64.4 °F 100% 29.95 in 2.5 mi East 5.8 mph - N/A   Mostly Cloudy
7:55 PM 64.4 °F 64.4 °F 100% 29.95 in 4.0 mi East 4.6 mph - N/A   Overcast
8:15 PM 64.4 °F 64.4 °F 100% 29.95 in 4.0 mi East 5.8 mph - N/A   Overcast
8:35 PM 64.4 °F 64.4 °F 100% 29.96 in 5.0 mi East 5.8 mph - N/A   Mostly Cloudy
8:55 PM 64.4 °F 64.4 °F 100% 29.96 in 10.0 mi East 8.1 mph - N/A   Overcast
9:15 PM 64.4 °F 62.6 °F 94% 29.96 in 10.0 mi East 8.1 mph - N/A   Overcast
9:35 PM 64.4 °F 62.6 °F 94% 29.97 in 10.0 mi East 8.1 mph - N/A   Overcast
9:55 PM 64.4 °F 62.6 °F 94% 29.98 in 1.8 mi East 6.9 mph - N/A   Overcast
10:15 PM 64.4 °F 64.4 °F 100% 29.98 in 4.0 mi East 8.1 mph - N/A   Overcast
10:35 PM 64.4 °F 64.4 °F 100% 29.97 in 4.0 mi East 6.9 mph - N/A   Overcast
10:55 PM 62.6 °F 62.6 °F 100% 29.96 in 4.0 mi East 8.1 mph - N/A   Mostly Cloudy
11:15 PM 64.4 °F 64.4 °F 100% 29.96 in 4.0 mi East 4.6 mph - N/A   Mostly Cloudy
11:35 PM 62.6 °F 62.6 °F 100% 29.96 in 4.0 mi ESE 4.6 mph - N/A   Mostly Cloudy
11:55 PM 62.6 °F 62.6 °F 100% 29.95 in 4.0 mi East 5.8 mph - N/A   Scattered Clouds